Regional Weather Roundup
Issued by NWS

Home | Current Version | Previous Version | Text Only | Print | Product List | Glossary On
Versions: 1 2 3 4 5 6 7 8 9 10 11 12 13 14 15 16 17 18 19 20 21 22 23 24 25 26 27 28 29 30 31 32 33 34 35 36 37 38 39 40 41 42 43 44 45 46 47 48 49 50
000
ASUS45 KABQ 300710
RWRNM
WEATHER ROUNDUP FOR NEW MEXICO
NATIONAL WEATHER SERVICE ALBUQUERQUE NM
100 AM MDT WED JUL 30 2014

NOTE: "FAIR" MEANS FEW OR NO CLOUDS BELOW 12,000 FEET AGL WITH NO
       SIGNIFICANT WEATHER OR OBSTRUCTIONS TO VISION.

      THIS PRODUCT IS RELEASED AS TWO VERSIONS.  ONE VERSION NEAR
      THE TOP OF THE HOUR CONTAINING PRELIMINARY DATA FROM ALBUQUERQUE
      AND OTHER STATIONS.  A FINAL VERSION WITH ADDITIONAL DATA IS
      ISSUED ABOUT 10 MINUTES AFTER THE HOUR.

NMZ501-503-504-510>518-300800-
NORTHWEST PLATEAU/NORTHCENTRAL MOUNTAINS

CITY           SKY/WX    TMP DP  RH WIND       PRES   REMARKS
FARMINGTON     CLEAR     68  52  56 W8        30.19R
LOS ALAMOS     PTCLDY    63  55  76 CALM      30.33F
SANTA FE       PTCLDY    61  57  87 NW3       30.27F
TAOS             N/A     55  52  88 N3        30.34S
ANGEL FIRE     FAIR      50  49  95 CALM      30.41S

$$
NMZ402-403-502-505>509-300800-
WESTCENTRAL MOUNTAINS/SOUTHWEST MOUNTAINS

CITY           SKY/WX    TMP DP  RH WIND       PRES   REMARKS
GALLUP         CLOUDY    65  54  67 SE3       30.29F
SILVER CITY    PTCLDY    66  59  77 N9        30.24F

$$
NMZ407-409-411-412-300800-
SOUTHERN DESERTS

CITY           SKY/WX    TMP DP  RH WIND       PRES   REMARKS
LORDSBURG      FAIR      72  54  53 S5        30.13F
DEMING         CLOUDY    73  69  87 NW5       30.14F
LAS CRUCES     MOCLDY    75  64  69 NW3       30.15F
HOLLOMAN AFB   PTCLDY    73  66  78 S6        30.11F
ALAMOGORDO     PTCLDY    72  63  73 NE6       30.13F
T OR C         PTCLDY    69  63  81 CALM      30.17F

$$
NMZ519>523-300800-
CENTRAL VALLEYS/CENTRAL HIGHLANDS

CITY           SKY/WX    TMP DP  RH WIND       PRES   REMARKS
ALBUQUERQUE    CLOUDY    69  61  75 SE8       30.21F
DOUBLE EAGLE   CLOUDY    66  59  80 W7        30.25S
MORIARTY ARPT  FAIR      64  54  71 N10       30.26F
CLINES CORNERS CLOUDY    61  55  81 N23G31    30.30F
BELEN          FAIR      66  63  89 SE3       30.20F
SOCORRO        FAIR      68  60  75 CALM      30.19S

$$
NMZ524>526-539-540-300800-
SOUTHCENTRAL MOUNTAINS

CITY           SKY/WX    TMP DP  RH WIND       PRES   REMARKS
RUIDOSO        MOCLDY    63  57  82 W5        30.33F

$$
NMZ527>531-300800-
NORTHEAST HIGHLANDS/NORTHEAST PLAINS

CITY           SKY/WX    TMP DP  RH WIND       PRES   REMARKS
LAS VEGAS      CLOUDY    60  56  86 S8        30.28F
RATON          PTCLDY    61  58  90 N9        30.24R
CLAYTON        NOT AVBL

$$
NMZ532>537-300800-
EASTCENTRAL PLAINS

CITY           SKY/WX    TMP DP  RH WIND       PRES   REMARKS
TUCUMCARI      CLOUDY    71  65  81 CALM      30.12F
CANNON AFB     PTCLDY    68  64  88 S8        30.15F
CLOVIS AIRPORT NOT AVBL

$$
NMZ028-029-538-300800-
SOUTHEAST PLAINS

CITY           SKY/WX    TMP DP  RH WIND       PRES   REMARKS
ROSWELL        MOCLDY    73  67  81 NW5       30.10S
ARTESIA        MOCLDY    75  63  64 N6        30.08F
CARLSBAD       MOCLDY    83  49  30 S7        30.05S
HOBBS          MOCLDY    72  63  73 E7        30.12F


$$


USA.gov is the U.S. government's official web portal to all federal, state and local government web resources and services.